Time,TemperatureF,DewpointF,PressureIn,WindDirection,WindDirectionDegrees,WindSpeedMPH,WindSpeedGustMPH,Humidity,HourlyPrecipIn,Conditions,Clouds,dailyrainin,SoftwareType,DateUTC
2013-06-12 00:00:00,76.5,74.0,29.93,SSE,151,0.0,0.0,90,0.00,,,0.00,weatherlink.com 1.10,2013-06-12 05:00:00,
2013-06-12 00:15:00,76.2,73.0,29.93,SSE,151,0.0,0.0,90,0.00,,,0.00,weatherlink.com 1.10,2013-06-12 05:15:00,
2013-06-12 00:30:00,76.1,73.0,29.93,SSE,151,0.0,0.0,90,0.00,,,0.00,weatherlink.com 1.10,2013-06-12 05:30:00,
2013-06-12 00:45:00,76.4,73.0,29.93,SSE,151,0.0,1.0,88,0.00,,,0.00,weatherlink.com 1.10,2013-06-12 05:45:00,
2013-06-12 01:00:00,76.9,73.0,29.93,SSE,151,0.0,1.0,86,0.00,,,0.00,weatherlink.com 1.10,2013-06-12 06:00:00,
2013-06-12 01:15:00,77.4,73.0,29.92,SW,229,0.0,3.0,85,0.00,,,0.00,weatherlink.com 1.10,2013-06-12 06:15:00,
2013-06-12 01:30:00,77.9,72.0,29.92,SSE,162,0.0,3.0,83,0.00,,,0.00,weatherlink.com 1.10,2013-06-12 06:30:00,
2013-06-12 01:45:00,78.2,72.0,29.92,SSW,200,0.0,2.0,82,0.00,,,0.00,weatherlink.com 1.10,2013-06-12 06:45:00,
2013-06-12 02:00:00,78.5,72.0,29.92,SW,236,1.0,3.0,81,0.00,,,0.00,weatherlink.com 1.10,2013-06-12 07:00:00,
2013-06-12 02:15:00,78.7,72.0,29.91,SW,233,1.0,3.0,80,0.00,,,0.00,weatherlink.com 1.10,2013-06-12 07:15:00,
2013-06-12 02:30:00,78.3,72.0,29.91,SW,233,0.0,1.0,82,0.00,,,0.00,weatherlink.com 1.10,2013-06-12 07:30:00,
2013-06-12 02:45:00,77.8,72.0,29.91,SW,232,0.0,1.0,81,0.00,,,0.00,weatherlink.com 1.10,2013-06-12 07:45:00,
2013-06-12 03:00:00,78.1,72.0,29.91,SW,228,0.0,2.0,80,0.00,,,0.00,weatherlink.com 1.10,2013-06-12 08:00:00,
2013-06-12 03:15:00,78.1,71.0,29.91,WSW,244,0.0,3.0,79,0.00,,,0.00,weatherlink.com 1.10,2013-06-12 08:15:00,
2013-06-12 03:30:00,77.9,71.0,29.91,SW,225,0.0,4.0,80,0.00,,,0.00,weatherlink.com 1.10,2013-06-12 08:30:00,
2013-06-12 03:45:00,77.3,71.0,29.91,SW,225,0.0,1.0,81,0.00,,,0.00,weatherlink.com 1.10,2013-06-12 08:45:00,
2013-06-12 04:00:00,76.5,71.0,29.91,SW,225,0.0,0.0,83,0.00,,,0.00,weatherlink.com 1.10,2013-06-12 09:00:00,
2013-06-12 04:15:00,75.5,71.0,29.92,SW,225,0.0,0.0,85,0.00,,,0.00,weatherlink.com 1.10,2013-06-12 09:15:00,
2013-06-12 04:30:00,74.3,70.0,29.92,SW,225,0.0,0.0,87,0.00,,,0.00,weatherlink.com 1.10,2013-06-12 09:30:00,
2013-06-12 04:46:00,73.5,70.0,29.93,SW,225,0.0,1.0,88,0.00,,,0.00,weatherlink.com 1.10,2013-06-12 09:46:00,
2013-06-12 05:01:00,72.9,70.0,29.93,SW,225,0.0,0.0,90,0.00,,,0.00,weatherlink.com 1.10,2013-06-12 10:01:00,
2013-06-12 05:16:00,72.5,70.0,29.93,SW,225,0.0,0.0,90,0.00,,,0.00,weatherlink.com 1.10,2013-06-12 10:16:00,
2013-06-12 05:31:00,72.0,69.0,29.93,SW,225,0.0,0.0,91,0.00,,,0.00,weatherlink.com 1.10,2013-06-12 10:31:00,
2013-06-12 05:46:00,71.4,69.0,29.94,SW,225,0.0,0.0,92,0.00,,,0.00,weatherlink.com 1.10,2013-06-12 10:46:00,
2013-06-12 06:01:00,71.0,69.0,29.95,SW,225,0.0,0.0,92,0.00,,,0.00,weatherlink.com 1.10,2013-06-12 11:01:00,
2013-06-12 06:16:00,70.5,68.0,29.95,SW,225,0.0,0.0,93,0.00,,,0.00,weatherlink.com 1.10,2013-06-12 11:16:00,
2013-06-12 06:46:00,71.0,69.0,29.96,SW,225,0.0,0.0,94,0.00,,,0.00,weatherlink.com 1.10,2013-06-12 11:46:00,
2013-06-12 07:01:00,71.5,70.0,29.96,SW,225,0.0,0.0,94,0.00,,,0.00,weatherlink.com 1.10,2013-06-12 12:01:00,
2013-06-12 07:16:00,73.2,72.0,29.96,SW,225,0.0,1.0,95,0.00,,,0.00,weatherlink.com 1.10,2013-06-12 12:16:00,
2013-06-12 07:31:00,76.5,73.0,29.97,SSW,207,0.0,4.0,88,0.00,,,0.00,weatherlink.com 1.10,2013-06-12 12:31:00,
2013-06-12 07:46:00,78.6,73.0,29.98,SW,235,1.0,9.0,84,0.00,,,0.00,weatherlink.com 1.10,2013-06-12 12:46:00,
2013-06-12 08:01:00,79.8,74.0,29.98,WNW,284,2.0,6.0,81,0.00,,,0.00,weatherlink.com 1.10,2013-06-12 13:01:00,
2013-06-12 08:16:00,80.5,74.0,29.99,SSW,203,1.0,6.0,80,0.00,,,0.00,weatherlink.com 1.10,2013-06-12 13:16:00,
2013-06-12 08:31:00,82.1,74.0,29.99,SW,228,3.0,7.0,77,0.00,,,0.00,weatherlink.com 1.10,2013-06-12 13:31:00,
2013-06-12 08:46:00,82.7,74.0,29.99,SSE,166,2.0,9.0,76,0.00,,,0.00,weatherlink.com 1.10,2013-06-12 13:46:00,
2013-06-12 09:01:00,83.2,75.0,29.99,SW,215,2.0,9.0,76,0.00,,,0.00,weatherlink.com 1.10,2013-06-12 14:01:00,
2013-06-12 09:16:00,83.8,75.0,29.99,SW,219,2.0,8.0,74,0.00,,,0.00,weatherlink.com 1.10,2013-06-12 14:16:00,
2013-06-12 09:31:00,85.2,75.0,29.99,SW,218,3.0,9.0,71,0.00,,,0.00,weatherlink.com 1.10,2013-06-12 14:31:00,
2013-06-12 09:46:00,86.0,75.0,29.99,South,185,3.0,11.0,69,0.00,,,0.00,weatherlink.com 1.10,2013-06-12 14:46:00,
2013-06-12 10:01:00,86.2,75.0,30.00,WSW,247,4.0,13.0,69,0.00,,,0.00,weatherlink.com 1.10,2013-06-12 15:01:00,
2013-06-12 10:16:00,87.1,75.0,29.99,SSW,205,2.0,12.0,67,0.00,,,0.00,weatherlink.com 1.10,2013-06-12 15:16:00,
2013-06-12 10:31:00,87.6,75.0,29.99,SW,224,5.0,12.0,66,0.00,,,0.00,weatherlink.com 1.10,2013-06-12 15:31:00,
2013-06-12 10:46:00,87.6,75.0,29.99,SW,228,7.0,12.0,67,0.00,,,0.00,weatherlink.com 1.10,2013-06-12 15:46:00,
2013-06-12 11:01:00,87.7,76.0,29.99,SSE,147,4.0,11.0,68,0.00,,,0.00,weatherlink.com 1.10,2013-06-12 16:01:00,
2013-06-12 11:17:00,88.6,75.0,29.98,SW,214,3.0,9.0,65,0.00,,,0.00,weatherlink.com 1.10,2013-06-12 16:17:00,
2013-06-12 11:32:00,88.8,76.0,29.98,SW,226,6.0,15.0,66,0.00,,,0.00,weatherlink.com 1.10,2013-06-12 16:32:00,
2013-06-12 11:47:00,89.1,75.0,29.97,South,181,5.0,12.0,64,0.00,,,0.00,weatherlink.com 1.10,2013-06-12 16:47:00,
2013-06-12 12:02:00,89.2,76.0,29.97,SSW,203,4.0,11.0,65,0.00,,,0.00,weatherlink.com 1.10,2013-06-12 17:02:00,
2013-06-12 12:17:00,89.5,76.0,29.96,SW,230,5.0,11.0,64,0.00,,,0.00,weatherlink.com 1.10,2013-06-12 17:17:00,
2013-06-12 12:32:00,90.0,76.0,29.95,SSE,158,5.0,8.0,64,0.00,,,0.00,weatherlink.com 1.10,2013-06-12 17:32:00,
2013-06-12 12:47:00,90.5,75.0,29.95,SSW,203,9.0,13.0,61,0.00,,,0.00,weatherlink.com 1.10,2013-06-12 17:47:00,
2013-06-12 13:02:00,90.7,75.0,29.95,SSW,199,8.0,13.0,60,0.00,,,0.00,weatherlink.com 1.10,2013-06-12 18:02:00,
2013-06-12 13:17:00,91.3,74.0,29.93,SW,215,7.0,13.0,58,0.00,,,0.00,weatherlink.com 1.10,2013-06-12 18:17:00,
2013-06-12 13:32:00,92.0,77.0,29.92,SE,125,2.0,11.0,62,0.00,,,0.00,weatherlink.com 1.10,2013-06-12 18:32:00,
2013-06-12 13:47:00,92.0,75.0,29.91,SW,229,3.0,14.0,58,0.00,,,0.00,weatherlink.com 1.10,2013-06-12 18:47:00,
2013-06-12 14:02:00,92.3,76.0,29.91,SW,217,9.0,11.0,59,0.00,,,0.00,weatherlink.com 1.10,2013-06-12 19:02:00,
2013-06-12 14:17:00,92.4,75.0,29.91,SSE,161,5.0,14.0,57,0.00,,,0.00,weatherlink.com 1.10,2013-06-12 19:17:00,
2013-06-12 14:32:00,93.1,74.0,29.90,South,188,9.0,10.0,54,0.00,,,0.00,weatherlink.com 1.10,2013-06-12 19:32:00,
2013-06-12 14:47:00,94.1,75.0,29.89,WSW,254,7.0,15.0,54,0.00,,,0.00,weatherlink.com 1.10,2013-06-12 19:47:00,
2013-06-12 15:02:00,93.7,74.0,29.88,SSE,152,2.0,11.0,53,0.00,,,0.00,weatherlink.com 1.10,2013-06-12 20:02:00,
2013-06-12 15:17:00,93.7,74.0,29.88,SSE,151,3.0,13.0,53,0.00,,,0.00,weatherlink.com 1.10,2013-06-12 20:17:00,
2013-06-12 15:32:00,94.2,73.0,29.87,ENE,58,4.0,9.0,51,0.00,,,0.00,weatherlink.com 1.10,2013-06-12 20:32:00,
2013-06-12 15:47:00,94.4,72.0,29.86,SSW,198,5.0,13.0,49,0.00,,,0.00,weatherlink.com 1.10,2013-06-12 20:47:00,
2013-06-12 16:02:00,94.6,72.0,29.86,South,171,5.0,10.0,48,0.00,,,0.00,weatherlink.com 1.10,2013-06-12 21:02:00,
2013-06-12 16:17:00,94.7,73.0,29.85,SW,232,4.0,9.0,50,0.00,,,0.00,weatherlink.com 1.10,2013-06-12 21:17:00,
2013-06-12 16:32:00,94.3,71.0,29.84,SSW,193,4.0,12.0,47,0.00,,,0.00,weatherlink.com 1.10,2013-06-12 21:32:00,
2013-06-12 16:47:00,94.1,70.0,29.84,NE,55,9.0,12.0,45,0.00,,,0.00,weatherlink.com 1.10,2013-06-12 21:47:00,
2013-06-12 17:02:00,93.8,70.0,29.83,SW,218,7.0,11.0,46,0.00,,,0.00,weatherlink.com 1.10,2013-06-12 22:02:00,
2013-06-12 17:17:00,94.0,71.0,29.83,SSE,162,3.0,10.0,48,0.00,,,0.00,weatherlink.com 1.10,2013-06-12 22:17:00,
2013-06-12 17:32:00,93.9,73.0,29.82,ESE,117,4.0,13.0,51,0.00,,,0.00,weatherlink.com 1.10,2013-06-12 22:32:00,
2013-06-12 17:47:00,93.1,75.0,29.82,SW,227,2.0,11.0,55,0.00,,,0.00,weatherlink.com 1.10,2013-06-12 22:47:00,
2013-06-12 18:02:00,92.7,74.0,29.82,WSW,238,5.0,13.0,54,0.00,,,0.00,weatherlink.com 1.10,2013-06-12 23:02:00,
2013-06-12 18:18:00,92.0,74.0,29.82,SW,214,9.0,10.0,56,0.00,,,0.00,weatherlink.com 1.10,2013-06-12 23:18:00,
2013-06-12 18:33:00,91.4,74.0,29.81,South,171,3.0,6.0,56,0.00,,,0.00,weatherlink.com 1.10,2013-06-12 23:33:00,
2013-06-12 18:48:00,91.0,74.0,29.81,South,187,3.0,5.0,58,0.00,,,0.00,weatherlink.com 1.10,2013-06-12 23:48:00,
2013-06-12 19:03:00,90.5,74.0,29.81,SE,146,1.0,5.0,58,0.00,,,0.00,weatherlink.com 1.10,2013-06-13 00:03:00,
2013-06-12 19:18:00,89.9,74.0,29.81,South,183,3.0,10.0,59,0.00,,,0.00,weatherlink.com 1.10,2013-06-13 00:18:00,
2013-06-12 19:33:00,89.2,73.0,29.82,SW,225,4.0,6.0,60,0.00,,,0.00,weatherlink.com 1.10,2013-06-13 00:33:00,
2013-06-12 19:48:00,88.4,73.0,29.81,SW,215,1.0,4.0,61,0.00,,,0.00,weatherlink.com 1.10,2013-06-13 00:48:00,
2013-06-12 20:03:00,87.6,73.0,29.81,South,176,0.0,3.0,62,0.00,,,0.00,weatherlink.com 1.10,2013-06-13 01:03:00,
2013-06-12 20:18:00,87.0,73.0,29.81,South,176,0.0,5.0,63,0.00,,,0.00,weatherlink.com 1.10,2013-06-13 01:18:00,
2013-06-12 20:33:00,86.0,73.0,29.81,South,171,1.0,3.0,65,0.00,,,0.00,weatherlink.com 1.10,2013-06-13 01:33:00,
2013-06-12 20:48:00,85.2,74.0,29.81,South,181,0.0,2.0,68,0.00,,,0.00,weatherlink.com 1.10,2013-06-13 01:48:00,
2013-06-12 21:03:00,84.6,73.0,29.82,South,182,0.0,5.0,69,0.00,,,0.00,weatherlink.com 1.10,2013-06-13 02:03:00,
2013-06-12 21:18:00,84.1,74.0,29.82,SW,232,1.0,3.0,71,0.00,,,0.00,weatherlink.com 1.10,2013-06-13 02:18:00,
2013-06-12 21:33:00,83.6,74.0,29.82,SW,222,1.0,5.0,72,0.00,,,0.00,weatherlink.com 1.10,2013-06-13 02:33:00,
2013-06-12 21:48:00,83.7,74.0,29.82,SW,220,1.0,4.0,72,0.00,,,0.00,weatherlink.com 1.10,2013-06-13 02:48:00,
2013-06-12 22:03:00,83.3,74.0,29.82,SW,222,0.0,4.0,73,0.00,,,0.00,weatherlink.com 1.10,2013-06-13 03:03:00,
2013-06-12 22:18:00,83.1,74.0,29.83,SW,221,1.0,4.0,73,0.00,,,0.00,weatherlink.com 1.10,2013-06-13 03:18:00,
2013-06-12 22:33:00,82.9,74.0,29.83,SW,221,0.0,4.0,74,0.00,,,0.00,weatherlink.com 1.10,2013-06-13 03:33:00,
2013-06-12 22:48:00,83.1,74.0,29.83,South,186,1.0,7.0,73,0.00,,,0.00,weatherlink.com 1.10,2013-06-13 03:48:00,
2013-06-12 23:03:00,82.7,74.0,29.82,SW,232,2.0,8.0,74,0.00,,,0.00,weatherlink.com 1.10,2013-06-13 04:03:00,
2013-06-12 23:18:00,82.4,73.0,29.82,SW,222,1.0,4.0,74,0.00,,,0.00,weatherlink.com 1.10,2013-06-13 04:18:00,
2013-06-12 23:33:00,82.9,73.0,29.82,SW,217,9.0,9.0,72,0.00,,,0.00,weatherlink.com 1.10,2013-06-13 04:33:00,
2013-06-12 23:48:00,82.7,72.0,29.82,SW,225,3.0,9.0,71,0.00,,,0.00,weatherlink.com 1.10,2013-06-13 04:48:00,